User: anonymous   Login
Location: Oshawa
(43.9000°N, 78.8670°W)
Time: 05:13:56
(UTC-04:00)
Language:

Explorer 7 - Orbit

View from above orbital plane
View from above orbital plane
View from above satellite
View from above satellite

Ground track
Ground track

The orbit data is extracted from the following two-line orbital elements,

1 00022U 59009A   15186.50646734  .00003607  00000-0  30651-3 0  9997
2 00022 050.2851 297.2262 0147299 197.7017 161.8765 14.92267801954834
Epoch (UTC): 05 July 2015 12:09:18
Eccentricity: 0.0147299
inclination: 50.2851°
perigee height: 488 km
apogee height: 693 km
right ascension of ascending node: 297.2262°
argument of perigee: 197.7017°
revolutions per day: 14.92267801
mean anomaly at epoch: 161.8765°
orbit number at epoch: 95483

The dashed part of the orbit path shows where the satellite is in the earth's shadow,  

DLR